User: anonymous   Login
Location: Unspecified
(0.0000°N, 0.0000°E)
Time: 14:28:00
(UTC+00:00)
Language:

Courier 1B - Orbit

View from above orbital plane
View from above orbital plane
View from above satellite
View from above satellite

Ground track
Ground track

The orbit is defined by the following mean orbital elements,

1 00058U          26100.12279939 +.00000000 +00000-0 +33053-4 0 00005
2 00058  28.3260 125.1012 0164886   4.2175 355.9727 13.46428099    04
Epoch (UTC): 10 April 2026 02:56:49
Eccentricity: 0.0164886
inclination: 28.3260°
perigee height: 962 km
apogee height: 1208 km
right ascension of ascending node: 125.1012°
argument of perigee: 4.2175°
revolutions per day: 13.46428099
mean anomaly at epoch: 355.9727°

The dashed part of the orbit path shows where the satellite is in the earth's shadow,  

DLR